Meteo Giornale » Osservazioni meteo Svizzera » Buochs

ore: 20:50 - Osservazioni Meteo Buochs
Lat. 46° 58' N Lon. 8° 23' E Alt. 450 metri s.l.m.

sereno Europe/Zurich

17 °C

Sereno

Temp. 24 Ore

7 °C

21 °C

Ovest

7.4 Km/h

Dew point 9 °C

Umidità 59 %

Visibilità  10 Km

Il sole sorge alle ore 05:40

Il sole tramonta alle ore 21:06

Data e Ora Cielo e Fenomeni T °C DP °C Um. % Pres. hPa Vis. km Vento km/h
Oggi h: 20:50 sereno Sereno 17 9 59 1016 10 O 7.4
Oggi h: 20:20 sereno Sereno 18 8 51 1016 10 O/NO 9.3
Oggi h: 19:50 sereno Sereno 20 6 39 1016 10 N/NO 9.3
Oggi h: 19:20 sereno Sereno 20 6 39 1016 10 NO 11.1
Oggi h: 18:50 sereno Sereno 21 6 37 1016 10 N 7.4
Oggi h: 18:20 sereno Sereno 21 8 43 1016 10 N 7.4
Oggi h: 17:50 sereno Sereno 21 7 40 1016 10 N 5.5
Oggi h: 17:20 sereno Sereno 21 7 40 1016 10 N 5.5
Oggi h: 16:50 sereno Sereno 21 7 40 1016 10 N 9.3
Oggi h: 16:20 poco_nuvoloso Poco Nuvoloso 21 9 46 1016 10 N 9.3
Oggi h: 15:50 poco_nuvoloso Poco Nuvoloso 21 8 43 1017 10 N 9.3
Oggi h: 14:50 poco_nuvoloso Poco Nuvoloso 20 8 45 1017 10 NE 9.3
Oggi h: 14:20 sereno Sereno 19 8 48 1017 10 N 7.4
Oggi h: 13:50 sereno Sereno 19 8 48 1018 10 N 9.3
Oggi h: 13:20 sereno Sereno 19 9 52 1018 10 N 7.4
Oggi h: 12:50 sereno Sereno 18 10 59 1018 10 N 5.5
Oggi h: 12:20 sereno Sereno 17 9 59 1018 10 SE 7.4
Oggi h: 11:50 poco_nuvoloso Poco Nuvoloso 17 9 59 1019 10 N 5.5
Oggi h: 11:20 poco_nuvoloso Poco Nuvoloso 16 9 63 1019 10 N 5.5
Oggi h: 10:50 poco_nuvoloso Poco Nuvoloso 15 8 62 1019 10 N 5.5
Oggi h: 10:20 sereno Sereno 14 8 67 1019 10 N 5.5
Oggi h: 09:50 sereno Sereno 14 7 62 1019 10 N 5.5
Oggi h: 09:20 sereno Sereno 13 7 66 1019 10 N 3.7
Oggi h: 08:50 sereno Sereno 13 7 66 1019 10 N 1.8
Oggi h: 08:20 sereno Sereno 11 7 76 1020 10 N 3.7
Oggi h: 07:50 sereno Sereno 10 7 81 1020 10 N 3.7
Oggi h: 07:20 sereno Sereno 9 7 87 1020 10 N 3.7
Oggi h: 06:50 sereno Sereno 8 6 87 1020 10 N 5.5
Oggi h: 06:20 sereno Sereno 8 6 87 1020 10 N 5.5
Oggi h: 05:50 sereno Sereno 7 6 93 1020 10 N 5.5
Oggi h: 05:20 sereno Sereno 8 6 87 1020 10 SO 9.3
Oggi h: 04:50 sereno Sereno 8 6 87 1020 10 N 5.5
Oggi h: 04:20 sereno Sereno 8 6 87 1020 10 N 5.5
Oggi h: 03:50 sereno Sereno 9 6 81 1020 10 O/SO 7.4
Oggi h: 03:20 sereno Sereno 9 6 81 1020 10 N 5.5
Oggi h: 02:50 sereno Sereno 10 7 81 1020 10 N 5.5
Oggi h: 02:20 sereno Sereno 11 7 76 1020 10 N 5.5
Oggi h: 01:50 sereno Sereno 11 7 76 1020 10 N 1.8
Oggi h: 01:20 sereno Sereno 11 7 76 1020 10 N 3.7
Oggi h: 00:50 molto_nuvoloso Molto Nuvoloso 12 8 76 1020 10 N 3.7
Ieri h: 23:50 sereno Sereno 13 8 71 1020 10 O 7.4
Ieri h: 23:20 coperto Coperto 14 8 67 1020 10 N 5.5
Ieri h: 22:50 molto_nuvoloso Molto Nuvoloso 14 9 71 1020 10 O 7.4
Ieri h: 22:20 coperto Coperto 15 9 67 1020 10 N 5.5
Ieri h: 21:50 coperto Coperto 16 8 58 1019 10 N 3.7